GFSNW_sfc_wetblb_000.txt.gz
Wetbulb
55.68 55.78 55.00 54.77 55.10 53.45 52.32 52.10 45.08 58.29 59.27 48.24 48.80 45.26 47.78 49.35 50.37 52.43 50.22 49.04 47.34 45.32 45.38 44.70 44.82 44.64 48.58 51.55 51.08 47.14 48.89 45.30 40.25 41.22 47.00 47.74 45.79 43.00 43.23 37.01 35.04 38.76 38.10 38.12
55.56 55.66 55.69 55.61 54.89 53.38 48.66 46.35 47.66 57.75 56.73 42.23 43.46 46.68 46.21 48.26 48.65 49.60 48.32 46.77 48.63 49.22 45.91 42.35 45.67 46.46 50.59 51.09 50.09 47.79 48.33 43.29 37.30 39.92 42.79 44.82 42.61 44.54 44.36 43.43 41.48 37.74 35.38 38.17
55.29 55.34 55.60 55.53 55.17 54.17 50.51 45.99 40.14 47.41 51.23 50.01 45.49 43.90 44.14 44.27 49.56 48.22 48.55 46.88 48.69 47.09 45.29 47.35 43.98 45.18 49.27 47.97 50.24 55.20 51.23 44.68 41.27 36.26 40.50 43.48 39.54 42.60 44.22 42.81 37.75 38.02 38.70 41.09
55.06 55.14 55.12 54.99 55.05 54.48 50.80 46.08 43.03 45.56 39.06 42.22 43.29 42.65 41.90 40.60 41.24 46.43 47.78 44.45 43.88 43.75 40.70 42.38 42.46 45.49 46.03 48.13 49.73 49.15 47.57 40.61 42.88 43.99 45.40 46.02 45.13 43.13 42.72 41.15 41.88 38.35 41.21 41.94
54.39 54.67 54.99 55.00 54.63 53.93 49.53 43.10 41.71 43.68 40.58 41.62 39.44 39.08 37.50 37.93 40.54 42.03 41.55 41.88 43.89 43.49 40.55 42.07 40.31 42.40 42.73 42.43 45.10 41.56 44.11 39.50 42.35 40.54 44.38 44.62 42.91 45.04 45.41 43.05 43.07 42.80 43.18 42.33
54.19 54.15 54.39 54.70 54.10 52.68 47.64 48.87 47.68 42.57 39.99 38.96 37.62 38.07 38.78 38.88 40.39 41.20 42.01 40.92 39.67 41.24 43.15 45.12 45.12 45.38 44.27 42.73 39.44 36.45 36.36 36.87 37.48 35.52 42.28 42.48 38.74 43.12 44.75 45.33 45.45 43.78 39.88 44.15
54.17 54.41 54.51 54.16 54.16 52.73 49.30 48.20 48.13 41.62 35.22 37.97 37.67 39.10 39.55 38.28 39.11 37.81 41.01 41.44 38.71 41.78 45.72 45.32 44.39 43.35 42.82 42.25 41.99 42.31 36.53 35.99 35.03 33.33 38.65 31.42 42.77 48.18 47.88 46.04 46.92 46.66 46.28 47.05
53.40 54.07 54.03 54.05 54.20 53.73 50.99 49.95 47.21 42.84 36.34 38.18 38.42 38.78 38.71 40.03 40.83 39.53 39.66 42.07 43.74 46.80 43.83 37.66 34.46 34.20 35.66 37.86 40.32 40.53 42.06 38.76 34.56 32.75 33.62 38.93 43.41 45.97 45.52 43.38 42.70 48.12 46.57 47.70
52.96 53.23 53.76 54.24 54.04 53.63 51.63 50.08 50.99 46.23 38.25 36.20 40.14 38.56 39.85 36.58 36.78 38.03 39.96 43.95 44.72 44.57 39.68 36.00 28.69 27.21 31.83 31.27 35.67 43.80 43.01 43.00 37.89 34.85 31.76 31.32 41.01 47.47 48.58 46.07 37.28 46.88 47.66 47.86
52.52 53.08 53.57 53.80 53.60 53.34 51.90 49.11 51.25 46.28 39.71 41.64 41.52 37.64 37.10 40.76 38.99 36.15 38.46 39.50 39.80 42.95 36.87 32.55 29.67 28.74 34.56 28.21 29.36 31.07 34.31 35.03 31.37 30.66 28.36 35.71 44.45 48.17 48.07 36.71 38.87 46.21 47.06 47.79
51.90 51.77 52.99 53.40 53.47 53.21 51.67 48.66 51.22 46.90 41.52 42.19 44.00 43.82 40.23 40.52 39.66 35.03 38.64 37.03 37.94 36.56 31.94 31.38 30.97 30.43 33.01 32.23 34.22 33.49 32.48 30.58 30.23 32.64 29.41 28.50 43.61 43.03 38.40 40.69 43.62 44.52 45.80 46.68
51.57 51.73 52.07 52.75 53.13 52.80 52.12 46.62 50.59 50.85 44.31 42.13 47.10 47.24 47.69 46.10 45.10 41.09 40.62 37.98 37.80 38.96 34.81 35.09 34.46 30.80 32.42 30.39 26.16 35.32 29.72 36.35 33.28 34.91 35.51 40.70 42.75 43.89 44.05 44.20 44.55 43.88 44.19 45.17
51.51 51.20 51.49 52.07 52.23 52.19 51.34 48.16 49.04 47.86 42.87 42.03 42.32 40.93 45.91 49.06 47.96 48.22 38.37 40.33 42.02 40.53 42.23 37.62 35.54 31.52 34.13 28.02 29.34 31.85 35.26 39.20 35.67 34.75 38.69 39.67 42.78 43.85 44.55 45.36 44.34 45.29 44.99 45.38
51.61 51.36 51.56 51.57 51.60 51.62 51.43 47.75 48.96 47.03 43.18 36.41 38.06 47.12 44.38 48.63 48.12 47.21 46.62 44.07 44.58 43.37 42.02 37.41 34.43 32.87 37.01 31.88 33.32 32.41 35.11 37.04 34.82 34.56 37.85 40.42 41.87 43.10 44.19 45.40 46.75 45.81 46.09 45.56
51.44 51.37 51.41 51.32 51.26 51.44 50.50 49.45 48.95 49.60 42.63 35.28 37.48 43.54 45.52 46.95 46.79 45.64 46.06 44.47 42.31 40.54 37.41 35.78 32.96 36.98 35.84 35.43 34.56 31.81 36.09 35.19 34.04 33.57 40.33 39.87 40.66 43.29 45.99 45.06 45.63 46.74 45.44 45.50
51.24 51.29 51.27 50.98 50.79 50.80 47.32 40.78 47.50 49.66 48.80 40.18 33.72 42.96 42.22 44.28 44.86 43.94 43.83 43.56 42.27 41.02 38.13 36.55 37.97 39.81 36.64 32.42 29.67 35.89 38.46 39.85 40.30 37.65 41.31 41.38 42.37 43.64 44.78 44.94 45.08 48.59 48.65 47.63
51.57 51.38 51.17 50.80 50.67 49.06 42.68 40.11 45.39 49.20 48.41 39.04 33.30 34.13 41.38 43.92 43.36 42.85 42.09 43.45 41.58 40.46 38.33 36.66 35.46 36.91 37.16 33.78 28.89 35.19 37.62 39.28 40.16 41.95 42.01 39.39 41.98 41.65 44.86 45.49 46.98 48.38 48.94 49.36
52.13 51.86 51.09 50.51 50.26 48.86 44.54 47.30 49.31 49.02 43.85 40.81 32.40 33.60 36.66 43.70 38.84 37.19 42.88 39.72 40.64 39.16 36.77 37.29 35.50 36.87 35.68 29.79 34.65 37.17 38.57 39.41 39.60 40.33 42.10 41.80 43.11 44.35 44.47 46.03 46.64 45.48 45.07 47.08
51.35 50.68 49.98 48.77 47.57 44.47 46.21 49.19 49.05 48.70 43.48 33.00 32.73 32.22 31.65 40.68 38.14 39.01 38.78 39.15 33.16 38.65 34.43 34.47 35.17 32.70 29.30 32.81 35.07 36.90 38.73 38.56 39.28 41.42 42.26 42.93 42.59 42.53 42.73 44.45 44.50 44.20 44.52 43.10
49.93 48.53 43.76 40.81 43.94 48.28 47.73 45.27 39.73 37.62 36.24 34.68 32.34 35.93 34.18 38.00 37.39 35.65 35.08 34.49 32.01 30.12 32.36 36.67 32.44 30.28 35.83 37.81 38.96 39.52 40.08 41.00 41.57 39.03 38.06 38.66 39.41 40.44 41.30 41.98 43.23 44.74 41.97 41.17
47.71 43.27 40.15 44.71 46.89 43.45 40.49 35.89 34.27 36.03 32.81 35.65 36.50 35.95 33.28 39.13 33.69 33.85 35.44 33.87 33.41 27.67 31.21 30.74 29.49 28.65 34.77 39.01 40.23 41.49 42.08 41.58 40.98 39.08 39.06 39.62 40.03 40.33 40.69 40.84 42.92 43.97 41.43 39.98
45.04 43.64 45.35 42.41 38.46 36.04 32.95 31.95 35.18 32.41 30.70 35.59 33.96 34.65 35.72 37.42 39.74 35.46 34.10 31.24 32.77 26.09 34.82 30.15 26.12 31.69 36.50 38.03 38.44 39.09 40.05 40.44 40.05 40.90 40.23 39.59 40.55 41.70 41.48 41.35 42.80 44.46 41.45 40.06
46.29 39.63 36.54 35.09 35.14 28.42 28.45 26.32 30.60 31.63 35.31 36.36 35.32 33.01 35.71 36.97 37.00 34.13 33.12 28.55 27.33 34.52 29.25 26.64 29.31 35.88 38.45 38.78 39.03 39.63 40.38 39.30 38.82 38.54 39.40 40.63 40.85 41.65 42.07 41.63 39.24 38.92 39.16 39.82
37.68 33.88 28.49 31.04 30.42 31.02 32.49 32.27 33.02 36.08 35.87 35.41 35.40 34.48 33.36 35.65 32.12 32.31 28.72 31.51 31.87 25.11 23.59 24.93 31.83 36.52 38.22 39.25 39.74 39.09 38.70 38.86 37.12 36.69 38.67 39.34 40.07 40.20 41.18 41.43 39.37 38.78 38.44 39.22
34.62 34.92 28.21 30.89 35.79 36.71 36.89 37.59 36.53 37.58 38.19 36.70 34.88 34.27 35.05 32.69 30.36 31.01 30.70 27.72 23.67 26.15 25.39 31.99 36.37 37.53 37.69 37.32 38.31 37.80 38.15 37.18 35.12 35.51 36.65 38.42 39.29 38.45 38.44 39.22 38.70 38.15 38.37 38.59
35.05 33.56 30.69 34.33 34.18 34.14 35.95 36.23 35.36 38.82 37.62 37.35 36.02 31.25 29.12 29.20 30.00 28.59 26.77 24.85 24.05 28.88 33.63 36.55 37.35 36.56 37.03 37.19 38.13 38.40 37.43 35.26 34.86 35.32 36.93 37.21 37.14 35.56 35.62 37.27 37.27 37.54 37.52 36.92
32.93 31.48 35.29 33.88 33.48 33.54 34.91 36.22 35.07 38.37 34.35 30.17 32.12 27.77 26.80 32.51 29.15 26.90 30.08 28.13 31.56 35.21 36.17 37.45 37.38 35.86 36.34 37.52 38.03 37.26 35.54 34.20 33.63 35.18 35.81 35.14 36.01 36.13 35.46 34.24 35.72 37.14 37.47 37.42

GFSNW_sfc_wetblb_003.txt.gz
Wetbulb
55.65 55.86 55.49 55.42 55.68 53.94 48.87 44.61 39.40 53.81 53.59 42.66 40.59 37.69 43.08 46.65 45.45 47.74 46.75 46.69 44.90 42.69 42.86 41.54 41.24 41.09 44.22 48.96 47.58 43.60 45.74 41.54 37.55 40.23 43.29 45.10 43.76 41.39 41.58 34.97 30.10 34.10 35.91 35.91
55.29 55.38 55.49 55.14 54.43 53.75 45.89 40.98 39.99 49.94 51.06 35.90 35.78 40.83 44.09 45.66 45.12 45.35 45.87 45.36 47.27 46.95 43.65 40.03 42.15 43.70 48.07 47.58 46.94 44.81 46.14 41.03 35.33 37.60 38.71 40.63 38.74 41.59 41.29 41.95 35.86 35.36 33.27 36.49
54.53 54.88 55.09 55.15 54.51 54.03 46.93 40.19 33.03 39.28 43.59 42.27 38.96 37.95 37.32 38.04 42.89 42.62 43.50 42.81 44.78 43.64 41.36 43.84 42.07 42.71 46.95 48.15 46.83 49.42 47.43 42.65 39.38 34.41 38.39 40.17 36.80 39.83 41.84 39.68 35.47 36.76 37.03 39.06
54.57 54.60 54.98 55.23 54.91 53.99 46.94 39.78 35.19 39.06 33.48 35.03 35.44 34.16 35.31 33.93 34.15 39.67 40.43 38.70 39.26 36.51 35.56 38.86 38.90 41.48 42.61 44.96 46.99 42.82 41.18 37.86 39.66 37.97 37.96 39.92 40.96 41.54 41.11 39.00 40.01 36.32 39.51 39.52
54.44 54.50 54.80 54.91 54.58 53.48 44.74 37.16 36.46 37.64 35.20 35.86 33.48 34.77 31.96 34.67 36.49 36.23 35.39 34.59 37.00 36.64 32.84 34.66 33.12 37.67 38.47 38.83 40.50 39.36 40.39 32.87 34.05 30.80 36.18 36.90 35.07 38.67 40.24 41.72 42.03 41.29 41.54 41.12
53.63 54.09 54.14 54.38 53.84 51.32 42.05 43.20 43.86 41.40 37.82 33.75 32.14 32.18 34.70 36.12 37.70 37.77 39.25 37.56 35.78 34.63 36.60 38.31 38.99 38.93 40.22 40.41 38.28 36.71 36.05 34.46 31.28 26.78 34.12 33.13 28.89 36.68 40.81 42.72 43.85 42.74 38.41 43.18
53.29 53.70 53.92 54.09 53.82 52.18 45.95 43.66 41.71 37.20 32.83 34.40 34.76 36.81 37.87 36.86 37.25 34.79 38.42 39.03 35.72 38.93 43.46 41.89 40.33 38.55 38.74 40.18 40.46 41.09 35.27 33.01 33.82 28.38 31.16 23.73 35.18 45.01 45.07 43.67 45.35 45.95 45.27 45.94
53.33 53.46 53.38 53.19 54.11 53.30 46.42 45.76 44.57 40.02 33.36 34.95 35.27 36.02 36.33 37.06 37.90 37.17 37.14 39.02 40.60 40.14 38.93 34.05 30.51 30.68 31.86 34.17 36.92 36.51 37.12 34.55 32.04 29.16 28.90 33.06 36.58 41.68 40.43 39.17 38.17 44.84 44.94 46.93
52.82 52.66 53.03 53.57 53.65 53.23 47.47 45.52 46.01 43.32 37.71 34.61 37.69 36.22 36.53 33.78 33.56 34.43 37.12 40.62 42.37 38.89 35.75 31.67 19.70 23.91 27.43 26.92 31.22 37.55 37.41 36.34 33.10 31.01 27.34 24.01 34.90 41.21 45.16 42.41 36.17 42.27 41.89 41.38
52.37 51.95 52.24 52.55 52.98 53.07 49.59 45.54 46.67 41.48 37.21 38.94 39.01 35.68 36.37 38.02 37.14 35.55 36.97 36.46 36.29 37.59 31.43 27.75 25.25 24.46 31.27 24.39 25.32 26.55 27.82 29.11 28.27 29.06 27.97 31.06 38.81 41.63 43.59 32.77 34.33 41.35 41.33 41.33
51.88 51.27 51.39 51.82 52.22 52.51 48.37 45.54 47.19 42.86 38.87 39.35 41.25 41.54 38.40 38.22 38.48 34.37 36.19 35.88 34.59 32.80 28.83 27.89 25.87 24.94 29.48 30.43 31.23 29.25 28.30 26.55 25.96 26.85 26.41 23.11 42.09 42.22 37.31 40.68 40.96 41.40 40.98 41.04
50.75 51.78 52.14 51.51 51.21 52.15 50.96 44.29 46.90 47.93 42.63 39.80 44.22 44.48 45.23 44.07 43.30 39.86 38.80 37.34 35.83 37.97 31.70 30.85 30.19 25.95 27.43 28.35 24.70 33.28 25.46 31.19 27.33 29.79 29.49 37.57 39.11 39.21 45.07 44.67 42.14 41.80 41.81 42.79
51.38 51.80 52.22 51.56 51.52 51.95 50.39 44.66 45.38 45.06 40.94 38.97 38.83 38.60 43.73 45.84 46.05 46.89 37.99 38.70 39.69 38.13 39.41 35.97 34.50 29.84 29.76 25.92 26.62 27.73 32.37 33.78 30.85 30.60 34.71 36.43 38.81 41.20 42.46 43.52 43.08 43.77 45.74 45.46
51.58 52.00 52.01 52.05 51.86 51.70 50.97 44.62 45.14 43.72 40.08 34.20 35.11 43.84 41.24 45.43 44.77 44.69 44.97 42.90 43.09 41.43 39.84 36.52 34.03 31.15 36.20 31.54 30.93 30.28 32.39 32.00 30.80 29.88 33.98 35.47 38.07 40.93 42.43 42.90 43.76 45.31 46.77 47.50
51.62 51.57 52.07 52.17 51.93 51.65 49.45 46.75 46.55 46.41 39.81 31.45 33.35 39.66 42.07 42.94 42.33 42.59 43.54 42.37 40.58 39.42 37.07 35.69 32.77 35.17 34.91 34.19 30.35 29.69 33.85 31.75 28.13 27.97 34.82 34.47 36.62 40.20 41.83 41.14 41.98 43.77 44.20 45.37
51.88 52.13 52.38 52.24 52.09 51.58 46.02 39.59 41.74 44.77 46.46 39.05 31.37 39.36 38.15 40.68 42.06 40.98 40.40 40.48 39.65 40.18 37.66 36.60 37.04 39.30 35.89 31.06 28.95 34.75 36.24 37.34 37.33 34.44 38.39 38.38 39.35 40.74 41.41 41.35 42.58 43.54 43.77 45.08
52.06 52.10 52.02 51.75 51.65 48.31 42.74 38.44 40.19 48.01 46.44 37.34 30.56 28.55 37.05 40.06 38.85 38.38 38.81 39.38 38.31 39.71 38.32 36.55 36.39 36.15 36.92 32.85 28.65 34.24 36.39 37.40 37.72 38.28 37.61 35.44 38.08 37.76 41.31 41.87 42.79 44.35 45.11 45.80
52.13 51.99 51.34 50.69 50.62 49.15 45.01 46.68 48.36 48.50 43.42 41.06 31.79 31.65 33.13 38.79 34.21 32.95 39.77 38.07 39.17 39.15 37.21 36.69 35.10 36.22 35.21 28.14 32.96 33.85 36.10 36.99 37.05 37.56 38.68 38.25 39.62 40.26 40.75 42.40 42.66 42.44 42.79 44.03
51.66 50.92 50.17 46.33 45.98 42.59 42.84 48.43 48.22 45.42 41.41 33.73 31.74 28.80 27.23 39.17 36.71 38.33 37.88 38.28 33.51 35.80 34.50 34.41 35.06 32.15 29.18 31.81 32.25 33.90 35.81 35.79 36.57 38.25 38.41 38.29 37.88 38.52 39.93 40.32 40.75 39.18 40.32 41.40
50.21 46.28 41.86 35.80 41.23 47.93 45.83 40.53 36.64 38.31 37.15 34.61 31.36 35.30 29.89 34.30 34.06 33.30 34.08 34.38 32.04 29.40 29.87 35.25 32.15 30.18 35.23 36.72 37.01 37.11 37.33 38.57 39.26 36.44 35.65 35.83 35.26 35.86 36.95 38.20 39.85 40.41 40.84 41.33
41.88 38.07 36.69 41.24 45.41 39.09 39.28 34.47 31.21 33.53 28.15 33.58 31.60 31.75 31.79 35.80 32.60 32.60 34.61 31.49 29.62 24.55 26.41 26.68 25.85 26.04 31.93 34.40 35.66 37.96 38.71 38.69 38.18 37.82 37.58 37.43 37.40 37.18 36.59 37.25 38.75 40.16 40.36 40.13
41.79 41.56 43.55 41.65 37.08 35.44 32.39 30.04 32.02 26.10 28.69 34.27 32.72 31.20 31.99 32.22 36.46 34.22 34.46 30.81 32.11 24.66 30.38 28.98 23.34 28.78 34.09 36.72 37.86 38.09 38.67 37.94 36.84 36.94 36.36 36.75 36.96 37.55 37.61 38.00 38.42 39.87 41.00 40.40
43.90 38.98 37.00 34.78 31.31 24.03 26.97 18.80 24.22 23.28 31.38 31.63 31.98 29.68 34.90 32.96 34.58 32.63 31.81 28.68 26.20 29.64 23.20 25.05 26.33 31.58 36.49 37.77 39.08 37.67 37.92 37.15 37.11 37.38 36.85 36.35 35.56 37.98 38.64 38.42 39.73 40.04 40.06 40.00
33.16 33.23 22.73 29.12 25.86 29.38 26.28 27.58 27.43 31.83 31.12 31.22 33.27 31.77 32.61 30.94 32.28 31.19 27.65 29.33 27.32 18.34 16.83 20.88 29.38 34.98 36.15 35.92 35.69 35.61 36.57 37.30 37.16 36.42 35.25 34.19 34.16 35.83 38.61 38.76 39.14 39.44 39.36 38.92
33.20 34.05 24.56 26.08 29.26 30.48 31.42 31.55 31.56 34.18 37.54 32.79 29.11 30.03 32.54 29.18 29.82 30.17 28.80 25.07 19.28 22.73 21.57 28.97 35.82 36.92 35.72 33.47 35.24 35.94 37.04 37.43 36.49 35.96 33.31 33.17 35.53 36.66 37.60 37.94 38.06 38.50 39.42 39.21
33.77 32.98 30.48 30.16 28.36 28.14 28.97 29.81 29.77 34.28 32.91 31.83 30.42 30.65 28.51 26.67 26.99 24.64 23.94 24.25 23.02 27.10 32.69 35.95 36.89 35.71 35.03 32.99 35.81 36.28 37.74 36.88 36.06 35.08 33.76 35.32 35.52 35.68 35.78 36.88 37.24 37.85 38.70 38.04
32.77 30.87 34.31 32.75 32.18 30.49 31.56 33.09 32.36 36.29 33.66 29.73 29.43 23.94 22.57 27.80 25.95 21.72 24.84 22.32 28.08 32.56 34.14 35.10 34.59 34.35 35.18 35.58 36.05 36.99 36.89 35.40 34.35 31.97 34.29 35.61 35.99 36.15 35.84 34.07 36.28 37.22 37.38 37.45

GFSNW_sfc_wetblb_009.txt.gz
Wetbulb
54.90 54.63 54.81 55.28 54.80 53.53 47.70 40.31 39.43 47.52 48.48 40.34 36.54 35.96 39.11 44.24 41.05 40.27 39.58 40.02 41.11 38.24 36.46 36.28 38.09 38.44 40.92 42.62 44.03 40.11 43.63 40.98 35.44 37.84 43.90 45.41 42.86 38.66 36.44 32.87 31.52 31.52 33.24 34.27
54.20 54.40 54.84 54.91 53.97 52.67 44.37 37.42 36.91 43.57 45.25 32.98 32.91 34.23 35.79 38.74 36.58 36.46 37.46 36.59 38.24 36.68 35.62 30.49 37.41 34.31 42.00 40.98 38.70 38.82 41.66 37.53 29.68 31.25 36.50 37.41 34.80 35.93 36.45 34.66 33.96 30.97 28.89 32.93
53.76 54.01 54.43 54.30 53.91 53.16 43.40 36.48 31.03 35.25 36.60 34.26 30.87 30.03 30.79 33.21 37.50 36.44 36.83 35.35 36.87 34.02 31.79 34.68 31.58 32.41 37.96 39.59 39.08 44.16 42.51 36.60 32.82 27.69 32.19 35.39 32.42 34.97 35.93 33.81 27.87 27.67 28.71 30.36
53.74 53.97 54.19 54.30 53.78 52.58 41.59 36.56 33.70 34.77 28.14 29.68 30.55 30.50 30.85 30.51 31.14 36.02 35.77 33.23 33.92 31.87 28.49 30.02 29.60 33.08 34.52 37.62 40.59 39.52 37.36 29.54 31.34 32.05 33.04 33.30 32.33 33.58 34.08 31.25 31.58 27.59 29.26 30.78
53.19 53.73 53.71 54.04 53.40 50.62 40.50 35.12 33.85 35.68 31.67 32.27 29.57 30.51 27.26 30.76 33.52 33.50 32.26 31.14 34.19 33.39 29.65 30.98 29.49 32.16 32.24 31.67 35.21 34.13 35.11 28.97 30.84 27.57 31.13 31.12 29.16 31.77 32.52 32.78 32.65 32.16 33.03 32.00
52.25 52.99 52.79 53.18 52.91 48.28 39.59 39.67 39.42 35.56 32.44 29.81 27.72 28.57 31.19 33.52 33.35 34.47 36.02 34.78 33.33 32.10 33.57 35.99 36.00 36.63 35.99 35.17 33.08 31.81 30.74 28.39 25.75 23.14 28.67 28.29 24.55 28.75 30.25 31.81 33.94 33.95 30.65 36.21
51.90 51.79 52.08 52.70 52.90 49.32 42.50 41.05 39.17 33.42 28.09 31.78 31.74 34.22 34.86 33.06 33.20 31.70 35.48 36.18 32.87 36.21 40.04 38.39 37.26 34.92 34.76 34.89 34.41 35.07 29.76 28.55 28.78 25.03 27.00 18.87 29.20 35.25 35.35 33.70 35.55 37.86 39.16 39.21
51.59 51.40 51.43 51.42 52.30 51.25 44.19 42.84 39.59 34.57 28.14 32.20 32.25 32.84 32.63 33.11 34.18 33.31 34.25 36.22 37.43 39.67 35.60 31.26 27.79 27.14 26.78 29.25 32.17 31.88 32.45 28.87 26.17 20.27 21.23 26.40 29.44 33.42 32.87 31.91 32.57 38.96 32.64 37.11
51.53 51.85 51.69 51.31 51.68 51.53 43.76 42.20 43.02 40.98 36.00 30.11 34.83 33.35 33.41 31.27 31.21 32.85 34.37 37.98 38.78 36.07 34.45 32.52 24.01 21.40 24.09 23.49 27.10 31.77 32.13 31.80 26.00 23.94 20.18 17.24 28.27 33.97 37.05 36.05 26.69 37.76 36.63 37.38
50.80 50.49 50.40 50.93 51.85 51.62 45.34 42.59 43.65 42.68 36.41 35.82 35.18 32.90 31.09 35.18 34.27 31.94 33.95 33.94 33.41 34.62 28.67 25.66 23.83 23.15 28.32 24.18 23.18 24.14 24.29 24.36 22.57 21.47 18.46 24.50 31.84 35.66 37.77 24.87 26.41 36.13 37.94 38.64
50.55 50.34 50.03 50.67 51.17 51.66 45.49 42.32 44.72 41.35 36.72 36.02 37.60 37.87 34.20 34.11 34.00 31.13 32.43 31.96 31.18 30.35 23.35 24.43 23.00 26.63 26.21 25.29 25.62 25.90 22.83 18.79 20.38 19.86 16.74 16.87 36.00 35.26 29.78 34.19 37.99 38.59 37.74 37.46
50.42 50.53 50.55 50.77 51.18 51.60 50.27 43.83 44.13 44.86 41.31 37.37 40.76 41.07 41.55 40.04 39.77 36.09 36.49 34.18 33.81 34.95 31.22 29.06 28.68 24.22 28.66 26.83 21.64 28.61 23.26 27.91 25.14 25.26 25.88 33.36 36.65 35.91 38.14 38.47 37.36 37.09 37.16 38.87
51.02 51.15 50.76 51.20 51.54 51.88 50.64 45.30 44.68 44.18 40.42 37.86 35.40 33.90 39.14 42.32 41.89 42.65 34.77 35.25 37.87 34.77 38.12 34.03 32.94 28.21 25.85 24.32 25.42 25.24 27.80 32.69 29.54 29.61 31.78 34.00 35.81 37.50 38.16 38.51 37.00 37.70 38.92 38.71
50.03 50.31 50.89 51.33 52.04 52.15 51.49 46.91 46.22 45.05 41.42 34.10 34.77 40.14 36.43 40.37 39.81 40.29 41.27 39.22 39.23 38.17 37.71 34.68 32.24 29.41 32.91 28.15 28.29 27.66 31.62 32.60 31.06 30.64 32.71 34.29 35.35 35.51 35.83 37.41 38.21 38.27 38.99 39.34
49.64 50.35 51.03 51.54 52.09 52.05 49.33 45.30 46.64 46.00 41.23 32.80 34.24 39.14 40.18 40.17 39.61 39.30 39.75 38.91 37.49 36.66 34.94 33.49 30.40 34.70 33.71 32.42 33.29 30.00 33.78 31.81 29.53 27.77 33.99 33.63 34.26 37.33 38.34 36.92 37.06 37.97 37.56 37.33
49.83 50.74 51.49 51.89 51.84 51.43 43.29 36.61 39.03 45.24 46.64 38.20 31.64 36.27 36.40 37.52 38.40 37.60 36.81 37.39 36.27 36.87 33.92 34.24 35.77 37.16 34.40 30.07 26.37 33.47 35.43 36.62 37.41 34.67 37.01 36.36 37.20 37.86 37.77 36.40 37.16 38.30 38.46 38.93
50.23 51.61 51.69 51.50 51.42 46.39 42.01 36.21 38.49 47.22 46.04 38.59 32.61 28.76 33.24 35.81 37.05 35.74 34.11 34.90 34.28 36.84 36.33 35.07 34.81 34.39 35.94 31.84 28.37 33.92 34.80 35.01 34.74 35.35 34.43 32.48 34.39 34.52 37.65 38.38 38.71 39.84 39.10 39.35
50.93 51.52 51.27 50.91 50.45 49.10 44.73 47.03 48.11 47.76 42.93 40.72 30.86 29.12 28.59 34.47 31.93 30.57 34.64 33.75 38.13 37.85 36.96 36.86 35.13 36.60 35.05 29.02 31.10 32.33 33.73 33.86 32.87 34.77 36.18 35.67 37.14 37.40 38.00 39.65 38.50 36.66 36.32 36.96
51.07 51.12 50.18 45.34 42.19 39.38 42.37 48.67 48.33 47.14 41.50 32.34 32.14 26.09 20.49 32.94 30.49 33.85 34.69 37.16 32.27 36.71 34.16 34.70 35.29 32.73 28.82 31.35 30.87 32.53 33.62 32.62 35.33 37.85 37.08 37.24 35.93 35.71 36.18 35.98 35.91 35.30 35.33 35.90
50.54 44.94 39.51 34.60 42.64 46.63 44.46 40.19 36.84 38.00 38.74 37.68 31.68 34.38 30.53 31.80 26.70 25.53 30.68 31.98 30.96 27.96 29.89 32.04 32.56 28.14 33.86 33.46 34.00 34.61 36.57 38.70 38.74 34.42 32.67 33.86 33.73 34.60 34.79 35.14 35.81 35.44 34.88 34.55
40.78 36.97 36.10 40.63 44.53 37.37 36.66 33.18 33.62 32.59 31.01 33.53 32.64 32.18 30.18 32.09 28.15 27.03 30.57 30.36 28.23 25.25 24.18 26.71 25.81 23.28 29.82 35.71 35.80 38.27 38.94 38.49 37.52 35.43 35.23 35.48 34.89 34.32 35.01 35.06 35.48 35.31 34.04 33.09
40.56 41.05 42.49 39.88 36.93 33.64 30.19 27.73 27.57 28.14 25.81 28.57 32.09 30.49 30.26 30.78 31.73 33.26 32.50 30.60 29.66 23.73 29.92 28.24 23.43 26.80 32.22 35.70 36.65 37.14 38.39 38.00 36.34 36.48 35.40 35.53 36.36 36.39 35.70 35.01 34.71 34.09 33.58 33.73
41.84 38.09 35.87 33.33 32.21 26.11 25.06 17.86 20.58 23.10 28.44 30.95 29.08 28.04 33.14 32.54 33.91 32.42 30.74 27.01 25.35 28.20 26.08 23.80 24.55 31.82 34.55 35.67 37.45 36.90 37.30 36.04 34.63 34.59 35.45 37.07 36.85 35.98 34.71 33.45 33.96 33.73 34.20 35.13
33.75 30.82 26.76 27.73 25.24 26.32 24.36 24.16 26.59 29.19 29.50 31.27 32.71 30.53 27.77 29.28 29.52 28.99 26.33 26.43 27.88 21.93 21.23 19.32 27.19 33.63 34.05 34.24 34.61 33.38 32.38 33.00 32.98 34.34 36.59 35.61 33.80 32.77 33.24 33.85 35.28 35.21 34.18 35.11
31.48 32.01 24.91 25.15 27.76 27.60 28.12 28.71 28.73 30.89 32.66 31.75 28.92 26.07 26.61 27.06 28.71 29.29 26.08 24.54 19.72 22.10 20.14 23.11 32.34 32.25 32.08 31.53 31.77 31.35 31.49 32.07 32.97 34.88 35.14 32.56 31.79 31.88 32.83 34.93 35.90 35.64 35.24 35.09
34.26 31.91 29.55 28.72 27.28 25.89 26.75 27.70 27.74 31.97 32.78 30.83 28.71 21.90 25.50 23.16 24.45 24.58 21.00 19.22 18.89 20.58 29.34 31.62 31.60 30.68 30.68 30.56 31.30 32.15 33.16 33.43 34.31 35.40 32.52 32.19 32.77 33.55 34.29 34.89 34.62 33.87 34.63 37.02
32.01 30.43 33.14 29.16 28.72 27.48 27.94 28.61 29.01 32.55 30.57 26.19 26.33 22.77 19.30 25.03 22.47 21.69 20.55 24.21 27.83 29.44 29.86 31.09 31.09 30.45 30.41 31.13 31.61 32.56 33.31 34.29 35.38 32.97 32.56 33.16 34.30 35.23 34.05 31.87 32.54 32.84 33.57 34.15

GFSNW_sfc_wetblb_015.txt.gz
Wetbulb
53.89 53.53 54.15 54.58 54.23 51.93 45.23 40.49 35.83 44.60 45.09 38.31 34.93 34.12 36.95 40.68 36.80 37.57 37.29 38.68 36.01 34.27 33.65 31.70 34.32 35.10 35.04 38.77 38.15 33.54 38.20 36.57 28.29 30.18 36.73 38.67 37.22 35.35 32.74 25.31 23.80 26.42 23.77 22.65
53.53 53.73 53.45 53.87 53.32 50.32 40.07 36.05 34.85 40.29 40.48 28.56 26.50 30.62 33.46 36.48 34.76 35.01 34.78 34.26 36.08 35.23 33.23 28.59 32.36 33.54 38.54 37.46 35.75 33.01 36.14 30.37 23.26 25.79 30.35 34.00 31.39 32.78 32.40 31.64 29.49 22.85 19.71 23.18
53.20 53.26 53.27 53.25 53.08 50.88 39.86 33.76 30.00 32.85 34.37 32.22 29.30 28.28 29.55 30.63 36.42 35.58 35.37 34.19 35.17 32.73 30.62 33.36 29.82 31.56 36.12 36.79 36.78 41.54 39.48 32.93 28.55 21.66 25.61 31.20 27.38 29.70 31.39 30.00 23.43 24.33 25.00 27.09
53.00 53.23 52.92 52.77 52.57 49.78 39.49 34.11 32.38 33.29 25.82 29.70 30.57 30.05 30.03 29.21 30.80 34.92 33.91 32.25 32.82 31.37 28.40 29.30 29.13 31.64 32.17 35.68 38.24 36.82 34.64 27.61 29.45 29.77 30.52 30.58 29.61 28.99 29.39 27.48 28.31 24.11 27.07 28.08
52.28 52.63 52.71 52.23 51.86 48.48 39.52 32.20 30.78 31.01 30.42 31.08 27.55 28.97 27.90 30.55 31.88 32.15 30.16 30.43 32.31 32.09 28.99 30.03 27.63 30.55 31.52 31.01 33.97 33.71 34.27 26.84 29.39 26.17 29.57 29.35 26.97 29.22 29.80 29.89 30.11 30.10 30.63 30.07
51.89 52.53 52.66 52.09 51.29 46.02 37.43 36.95 37.66 30.67 30.67 28.53 25.70 27.36 30.59 31.83 32.50 32.54 34.84 33.32 31.83 30.57 32.09 34.75 35.67 35.65 35.29 34.36 31.72 30.33 30.20 28.25 26.08 21.47 27.54 26.86 22.93 28.23 29.08 29.58 31.11 30.78 26.89 32.20
51.50 51.43 52.01 51.93 51.37 46.57 40.85 38.82 36.20 29.05 26.56 29.03 29.11 32.57 33.10 31.83 31.80 30.49 33.44 34.28 31.91 34.82 38.25 36.45 35.23 33.87 33.41 33.61 33.04 34.09 29.78 28.28 27.52 22.64 23.99 16.07 28.38 33.86 32.87 30.59 32.73 34.00 33.82 35.52
51.25 50.71 51.29 51.72 51.23 49.23 42.28 40.72 37.62 32.32 26.94 29.65 30.54 31.65 31.41 32.05 32.77 32.34 32.79 34.35 36.08 37.29 33.66 29.64 26.84 26.52 27.02 29.15 30.83 31.13 32.82 29.18 24.42 20.52 19.90 24.97 27.80 31.01 30.52 28.87 28.88 35.07 33.48 34.72
50.79 51.03 51.13 51.21 51.14 49.69 42.07 41.04 40.29 36.34 30.06 28.26 33.11 31.94 32.62 29.08 28.87 30.05 32.54 35.86 36.16 35.17 32.20 28.38 15.36 19.08 22.91 22.49 26.60 32.12 30.40 30.94 26.83 24.29 18.48 15.63 27.39 32.82 35.72 35.25 24.38 34.85 35.16 34.77
50.30 50.39 50.09 50.61 51.20 50.23 43.51 41.06 42.21 37.20 30.94 33.19 33.82 30.41 30.15 32.85 31.15 31.02 31.31 32.45 32.17 33.71 28.51 25.42 21.53 21.15 26.29 21.58 22.47 24.84 25.31 25.06 21.85 22.44 20.95 24.11 31.02 33.62 37.51 22.96 26.26 35.61 36.30 36.17
50.38 50.04 50.31 50.25 50.56 50.53 46.36 44.34 45.25 38.91 32.18 33.21 35.69 36.90 33.24 34.12 32.52 29.91 30.60 30.26 30.04 29.34 27.10 25.74 24.37 22.17 25.84 24.58 26.53 25.86 23.79 21.60 20.96 22.58 19.13 16.53 34.00 34.24 27.74 33.05 36.34 36.84 37.20 37.34
50.37 49.82 49.64 50.14 50.76 51.03 49.56 43.84 46.42 46.46 41.48 36.47 38.96 38.96 39.77 39.16 37.22 34.03 34.96 31.02 30.91 32.13 29.30 28.73 28.61 25.33 25.57 25.39 21.12 28.31 23.24 27.93 25.22 26.19 25.27 33.06 35.60 35.12 37.31 37.85 36.65 37.21 37.25 38.07
51.09 50.04 49.62 50.19 50.88 51.32 48.93 45.33 44.92 44.50 40.61 36.67 36.10 35.54 39.52 41.20 41.47 42.07 32.91 32.82 35.31 34.25 35.77 33.27 31.26 26.68 27.56 24.08 24.03 25.73 28.57 32.29 28.69 28.05 31.50 32.98 34.91 37.03 38.08 38.28 37.63 38.68 39.00 38.38
50.48 50.05 49.76 49.88 50.87 51.65 50.10 45.66 44.94 44.46 39.91 32.93 32.04 39.34 36.55 40.08 40.10 40.00 40.63 36.70 36.84 36.13 37.01 34.37 32.06 28.59 32.47 27.27 28.26 27.50 30.62 32.12 30.04 29.34 32.04 33.95 35.32 36.89 37.91 38.27 38.62 37.97 38.32 38.24
50.52 49.92 49.70 49.98 51.34 51.70 47.26 43.45 43.17 45.00 39.93 30.03 31.44 37.04 38.06 38.21 37.24 37.80 38.81 37.89 35.46 33.53 33.64 32.10 29.36 33.34 32.32 32.52 31.49 28.77 32.53 30.54 28.97 28.11 34.17 34.50 35.00 37.77 38.83 36.98 36.26 37.06 36.66 36.92
50.48 49.56 49.71 50.48 51.37 49.20 42.06 35.65 38.49 45.37 46.48 35.59 28.39 34.98 34.83 37.16 37.29 36.39 35.63 36.50 35.37 34.10 32.33 31.81 33.39 35.07 34.11 29.26 27.37 30.93 34.76 37.15 37.72 34.65 37.49 37.14 37.25 37.98 38.14 36.73 37.12 37.29 36.81 37.64
50.18 50.14 50.27 50.79 51.11 43.88 39.18 34.93 37.57 45.09 43.16 35.76 31.09 30.88 33.81 34.00 36.07 35.72 34.77 34.94 33.54 32.45 31.70 33.66 32.60 33.20 34.77 31.38 27.40 33.22 33.68 34.78 35.31 36.36 36.96 34.20 35.87 34.93 38.33 38.14 37.18 38.07 37.04 37.40
49.79 50.04 50.29 50.54 50.57 48.70 43.96 44.55 46.62 46.71 41.37 39.98 31.07 30.50 29.03 33.51 31.24 30.70 33.26 32.38 32.52 34.53 35.10 34.42 33.43 35.10 34.48 28.68 31.05 32.79 35.46 35.92 35.97 36.60 37.62 36.93 37.76 37.90 37.81 36.82 35.54 34.58 34.41 35.33
50.00 50.15 49.47 45.25 42.99 40.89 41.68 48.60 49.02 47.05 41.18 32.91 31.51 26.57 21.17 32.04 30.16 30.21 30.31 32.43 29.47 32.30 31.87 32.99 33.93 31.38 28.05 30.29 31.35 34.11 35.45 34.67 35.17 36.78 36.81 36.29 35.04 34.04 34.25 33.94 33.18 32.76 33.44 34.54
49.72 45.60 40.04 35.94 41.68 47.53 45.78 40.87 38.25 39.07 39.62 37.71 31.77 34.27 26.48 30.01 26.15 23.96 23.20 24.95 29.45 26.51 26.13 30.72 31.00 28.94 32.22 32.88 36.19 38.01 37.66 35.38 35.04 32.03 30.84 31.74 31.33 31.43 31.84 31.76 32.86 33.39 33.72 34.65
43.25 38.53 37.23 40.48 44.93 38.80 35.04 30.32 32.21 33.55 31.59 34.21 34.36 32.90 30.39 31.61 26.90 26.35 28.02 28.11 29.46 24.48 24.80 25.06 25.61 23.09 28.71 34.94 36.05 36.03 35.76 35.25 34.40 34.15 33.59 32.83 32.00 31.14 31.08 31.52 32.61 33.73 35.38 33.59
42.40 40.99 41.89 40.39 35.78 32.14 29.17 28.06 30.42 31.02 27.46 29.50 30.60 31.23 32.98 29.90 31.92 31.47 31.78 27.29 28.09 20.10 27.67 26.44 22.98 25.96 33.96 33.73 33.55 33.92 33.80 32.96 32.03 32.49 31.68 31.92 32.06 32.34 32.14 32.33 33.25 35.03 33.77 33.87
42.27 38.66 35.07 33.15 31.23 27.34 25.39 22.28 25.51 26.57 30.00 28.67 30.63 29.54 30.07 32.57 33.83 32.13 29.56 24.97 22.08 27.98 22.34 23.01 24.92 31.55 33.05 32.40 31.93 31.17 31.76 31.81 31.92 31.70 32.39 32.68 32.59 33.58 33.73 34.47 33.65 33.85 33.63 34.71
35.87 33.35 27.49 27.78 25.22 26.06 26.23 27.65 27.66 30.20 29.96 31.06 31.05 30.37 30.53 32.28 29.82 29.64 25.22 26.71 26.06 21.16 20.26 19.69 25.20 29.45 30.55 30.69 30.37 29.78 30.16 31.90 31.86 31.98 32.97 33.29 33.72 32.87 33.36 34.10 35.12 34.55 33.39 34.21
33.19 31.98 24.81 26.00 27.92 27.51 28.67 28.83 29.46 30.20 32.95 31.47 29.03 27.58 28.08 27.79 25.23 27.72 25.43 22.93 20.16 20.19 19.73 22.00 28.30 29.68 28.74 28.47 29.69 30.80 31.55 33.04 33.20 33.48 33.84 32.57 32.35 32.83 33.82 34.60 34.73 34.34 33.54 32.95
34.29 31.15 28.39 28.20 26.25 25.38 26.57 28.58 29.18 32.13 30.61 30.12 29.36 23.82 24.61 24.60 25.66 22.28 20.75 19.06 18.79 20.70 26.11 28.37 29.11 27.50 29.64 30.57 31.74 33.24 33.02 34.15 33.55 34.17 33.00 33.57 33.46 33.34 33.50 34.28 34.04 33.61 33.50 32.26
31.74 30.68 32.65 28.40 27.58 27.06 28.82 30.18 29.54 32.40 29.97 25.66 26.40 17.99 20.05 24.43 18.91 18.67 22.99 21.93 23.17 28.93 27.69 27.64 27.60 30.10 30.86 32.21 33.57 33.39 33.92 33.70 34.00 33.35 33.60 34.37 35.54 34.59 33.68 31.92 32.95 33.45 33.97 33.48

GFSNW_sfc_wetblb_021.txt.gz
Wetbulb
54.05 54.36 54.50 54.17 53.59 51.81 52.21 54.71 47.08 50.02 52.60 48.82 48.98 46.00 43.19 42.64 40.73 42.77 43.09 42.95 41.24 39.36 38.22 36.55 37.01 37.98 40.35 41.76 41.80 37.06 39.06 35.57 31.58 35.09 40.35 40.28 38.33 36.83 35.98 30.32 28.72 31.84 29.76 28.83
53.72 53.89 53.93 53.45 52.74 51.56 53.86 48.02 46.85 50.08 50.29 42.94 40.79 41.92 39.81 41.30 40.11 40.33 39.96 39.31 40.07 39.82 37.61 34.44 36.66 37.94 42.60 41.53 39.56 37.32 38.50 35.07 29.56 34.59 37.50 39.48 36.70 38.04 37.03 36.08 34.66 27.88 24.11 27.60
53.47 53.58 53.49 52.91 52.49 52.11 52.69 48.06 44.98 45.62 46.58 45.48 42.09 39.78 38.23 37.73 41.67 39.59 40.57 39.56 40.23 37.96 36.50 38.28 36.10 36.75 39.23 40.70 39.52 40.78 39.67 34.62 31.88 28.58 32.63 36.22 32.88 34.95 35.87 33.75 28.61 28.80 29.35 30.95
53.40 53.61 53.42 52.86 52.34 52.53 52.17 48.39 42.47 43.03 41.82 40.78 41.22 40.87 38.81 37.22 37.08 40.08 40.19 38.10 37.48 35.97 33.84 35.79 35.05 37.13 37.96 39.51 40.32 39.44 38.09 31.74 34.79 35.14 35.35 34.87 33.47 32.73 33.18 31.48 32.17 27.95 31.05 31.32
53.01 53.39 53.24 52.50 51.90 51.58 49.77 46.60 45.31 44.42 41.62 40.41 40.29 39.08 38.18 37.43 37.06 37.68 36.39 36.15 37.46 37.16 34.72 35.81 33.75 36.06 36.44 35.71 38.67 37.11 38.55 30.92 33.19 29.93 33.41 33.19 30.81 33.32 33.84 33.60 33.63 33.32 33.52 32.57
52.03 52.72 52.70 52.28 51.26 51.91 48.27 48.80 47.26 46.49 37.62 39.47 40.00 39.34 38.83 37.55 37.93 38.40 39.73 38.24 36.88 36.56 38.02 40.16 40.55 40.69 40.05 39.05 36.72 35.66 35.20 33.32 30.50 25.55 32.22 31.53 27.32 33.02 33.90 34.25 35.11 34.14 30.12 34.62
51.89 51.70 52.49 52.58 51.26 51.11 49.91 48.20 47.59 44.35 39.32 40.99 40.39 38.85 38.75 37.87 37.94 37.01 38.81 39.68 37.15 40.25 43.32 42.12 41.44 40.44 39.19 38.92 38.17 39.01 34.44 33.50 32.34 26.85 29.32 20.92 33.60 38.29 37.33 34.80 35.48 36.87 36.44 37.11
51.53 51.36 51.87 52.17 51.30 50.93 50.18 50.00 48.11 44.91 40.74 41.96 39.00 38.55 38.50 38.85 39.24 37.80 38.45 40.08 41.34 43.37 40.03 36.09 34.16 35.53 34.69 36.25 38.39 37.94 38.32 34.47 29.41 25.29 25.45 30.01 32.94 35.60 34.60 32.74 32.22 37.53 36.60 38.07
51.12 51.22 51.38 51.77 51.13 50.94 51.25 49.00 50.44 47.51 43.18 40.37 41.45 39.49 39.65 39.44 39.02 38.62 38.63 41.64 43.51 41.32 38.47 35.99 27.77 29.48 31.23 30.02 32.33 38.19 37.23 36.88 31.47 28.45 23.08 19.48 31.81 36.69 39.44 38.05 27.50 38.17 37.60 36.95
50.73 50.85 51.10 51.12 51.55 51.36 51.26 49.20 50.69 47.86 44.18 43.22 42.54 40.25 39.56 41.57 40.22 38.70 39.26 39.03 38.79 40.83 37.35 33.47 31.79 31.03 33.40 27.43 28.20 29.92 31.97 32.52 28.89 29.03 26.78 29.22 36.43 38.21 39.43 25.28 29.08 38.81 39.17 38.49
50.84 50.62 50.42 50.57 51.16 51.52 51.21 48.96 50.77 47.27 44.22 44.60 43.26 43.47 41.05 41.08 40.96 38.18 39.98 38.33 38.14 37.46 33.30 33.97 34.23 31.41 33.18 31.05 33.04 30.77 29.25 27.65 27.57 29.07 25.63 22.06 38.98 37.66 30.73 36.37 39.57 39.54 39.59 39.80
50.75 50.71 50.24 50.04 50.80 51.55 51.04 48.73 50.65 50.27 45.66 44.78 46.55 45.95 46.74 45.42 44.17 41.82 41.02 39.81 38.04 40.43 36.62 36.79 36.15 32.14 33.18 31.35 26.93 36.31 28.83 33.09 30.48 30.90 30.49 38.24 40.06 38.63 41.46 42.00 39.67 40.20 39.45 40.10
50.98 50.92 50.55 50.12 50.56 51.14 50.93 48.82 49.60 48.44 44.38 44.45 43.90 42.69 46.50 47.45 46.80 47.70 39.94 41.72 42.08 40.13 43.21 39.69 37.43 31.46 35.12 29.24 30.99 32.76 35.66 38.13 33.38 33.53 35.81 36.92 38.42 40.30 41.72 42.08 40.29 40.61 40.89 40.51
51.84 51.38 51.06 50.65 50.39 50.76 50.92 48.10 49.21 47.84 43.97 38.61 41.88 46.18 43.15 47.99 47.56 46.08 45.89 44.22 44.04 43.36 43.14 37.12 35.36 31.92 37.65 32.56 34.05 32.74 35.38 36.22 33.63 33.42 36.20 37.99 39.40 40.54 40.69 40.57 40.86 40.19 40.71 40.58
52.38 51.36 51.18 50.94 50.64 50.63 51.11 51.49 50.67 49.29 43.16 38.80 40.16 43.99 45.28 45.97 45.82 44.92 45.17 43.78 42.20 39.62 35.77 34.73 32.68 36.93 35.26 35.88 34.91 32.55 37.24 35.05 32.73 32.35 37.48 37.41 37.97 40.02 40.26 38.85 38.95 39.26 38.97 39.66
52.36 51.59 51.74 50.82 51.00 50.31 49.66 43.34 49.03 49.81 48.25 40.32 34.75 43.91 41.75 43.18 43.62 43.31 42.70 43.27 41.71 39.20 35.48 34.11 35.55 38.79 35.63 31.59 30.09 36.72 38.88 39.99 40.20 38.04 40.69 40.22 39.99 40.44 40.76 38.46 39.07 39.64 39.21 39.59
52.74 52.25 51.78 51.03 50.74 50.07 45.32 43.47 46.74 49.47 48.85 40.95 36.19 36.63 41.79 42.43 42.31 42.37 42.11 43.12 40.20 38.06 35.51 34.03 35.17 36.08 37.05 33.75 29.76 36.13 39.05 40.28 40.88 41.54 40.13 36.35 38.23 35.59 38.96 39.26 39.67 39.02 38.57 38.44
52.69 51.36 50.91 50.20 50.05 49.27 46.18 49.04 48.34 49.96 45.61 43.01 34.68 34.63 36.27 41.43 38.51 38.28 42.82 38.45 37.95 36.16 35.41 36.73 35.54 36.02 36.22 30.55 35.29 38.13 39.89 40.49 40.12 39.56 39.68 37.92 38.88 38.51 37.20 37.70 37.56 35.46 35.27 36.07
52.08 51.47 49.82 48.92 47.21 44.33 45.08 49.22 49.01 50.28 44.41 36.17 35.36 31.53 33.20 39.42 39.88 41.16 39.44 39.76 32.57 39.08 33.11 34.08 35.37 32.71 30.17 33.96 36.50 38.28 39.01 37.28 36.75 38.25 37.58 37.19 35.64 34.93 34.61 34.64 34.69 33.94 34.27 35.53
51.40 47.50 43.52 39.26 45.07 49.23 48.58 45.12 41.15 40.77 41.07 40.99 34.07 38.06 34.31 37.00 37.54 36.65 37.29 36.86 33.52 28.65 34.40 37.89 32.70 31.08 37.16 39.23 40.12 39.08 38.89 38.32 37.91 34.14 32.94 33.46 32.24 33.27 33.84 33.94 35.12 34.93 34.76 35.03
45.76 41.59 39.40 45.37 48.06 44.19 41.21 36.34 35.67 35.61 32.83 36.27 36.27 36.66 33.92 38.80 33.94 34.70 37.49 34.32 34.33 27.15 32.07 30.94 30.48 30.52 35.74 39.55 38.81 39.41 39.18 38.34 37.24 36.79 35.48 34.90 34.12 33.38 33.03 34.02 34.39 34.40 34.81 34.31
44.82 43.93 44.07 42.22 39.54 36.87 33.74 32.17 34.38 31.70 31.64 37.16 34.33 34.45 36.82 36.09 39.80 35.69 34.59 31.80 32.28 25.76 34.80 29.25 26.59 34.39 38.30 38.44 37.96 38.28 37.88 37.22 36.54 36.21 34.56 34.55 34.55 34.56 34.18 33.90 33.29 34.57 34.91 34.90
43.95 40.01 36.72 35.62 34.32 30.15 27.69 26.78 28.76 31.07 34.46 36.49 34.84 32.62 34.39 35.38 37.85 34.72 32.27 26.71 26.53 34.74 28.21 27.13 31.85 37.00 38.42 38.26 37.46 36.65 37.50 37.06 35.80 34.53 35.04 34.57 34.16 34.95 33.95 33.86 34.50 35.29 34.56 35.29
35.28 32.27 29.81 31.25 29.59 31.45 34.47 34.89 36.30 38.41 38.00 35.98 36.14 33.84 33.97 35.10 31.86 32.93 27.22 30.92 31.85 25.83 24.16 27.73 35.27 37.50 38.35 37.34 36.59 36.15 35.64 35.06 34.04 33.63 33.89 33.83 33.60 33.82 34.43 33.98 34.46 34.39 33.76 34.76
32.22 33.85 29.98 30.96 36.82 39.28 39.06 40.99 38.71 38.14 38.76 36.45 33.94 33.83 34.42 30.95 29.88 31.10 30.92 26.80 24.07 26.00 27.24 34.12 37.74 38.50 37.00 35.99 36.24 36.07 35.22 34.25 33.80 33.94 33.79 33.69 33.67 33.81 33.28 34.29 34.11 33.92 34.37 34.55
33.31 33.60 33.64 37.77 36.46 36.98 36.58 37.34 36.19 38.69 38.51 38.25 37.37 32.40 31.05 29.78 30.99 27.89 25.83 25.16 23.54 29.66 34.94 38.57 39.00 37.04 36.44 36.47 36.49 35.92 35.51 34.31 34.09 34.40 34.28 34.08 33.13 33.02 33.05 33.66 34.18 34.29 34.46 34.50
31.34 33.92 38.38 40.13 39.77 39.05 38.02 37.77 36.97 39.97 36.57 32.62 33.40 28.78 28.53 33.57 28.37 26.23 30.19 27.37 31.97 36.58 37.61 38.89 38.19 36.80 36.48 36.91 36.46 35.95 35.02 34.28 34.38 34.60 34.53 33.67 34.03 33.72 33.03 32.20 32.48 35.23 35.43 35.55

GFSNW_sfc_wetblb_024.txt.gz
Wetbulb
54.07 54.45 54.54 54.38 53.83 52.53 52.93 54.95 47.71 51.11 52.53 47.78 48.31 44.62 44.28 42.72 41.27 43.28 42.87 43.08 41.13 39.44 38.53 37.05 37.08 38.24 40.37 42.14 41.22 35.74 38.34 33.69 28.77 33.36 39.65 40.59 37.85 34.65 34.84 28.28 26.52 28.13 24.57 25.53
53.78 53.96 53.94 53.81 53.55 52.20 52.19 48.95 48.33 52.50 51.11 41.93 40.69 42.16 40.56 42.04 40.87 40.53 40.91 39.92 40.17 39.90 37.93 34.73 37.44 38.20 42.19 42.03 38.99 35.98 37.12 32.46 25.76 32.07 35.91 38.83 36.37 37.67 37.47 34.61 31.69 26.05 22.45 25.03
53.47 53.60 53.55 53.10 53.48 53.48 52.60 49.35 45.45 46.99 47.24 46.31 42.67 40.19 39.05 37.93 41.90 39.99 40.93 39.97 40.48 38.44 37.07 38.89 36.24 37.00 40.48 41.59 39.57 40.55 38.72 32.58 29.49 24.96 29.57 33.96 31.17 33.80 34.93 32.60 25.41 25.99 26.54 28.72
53.61 53.68 53.59 52.93 53.02 52.97 52.83 48.46 42.62 44.29 41.51 40.85 41.31 41.31 40.01 38.30 37.88 40.14 40.62 38.61 38.20 36.11 33.75 35.63 35.65 37.67 38.26 40.04 41.02 39.09 37.49 29.96 32.80 33.74 34.35 33.74 32.20 31.72 32.23 30.01 30.38 25.53 28.40 29.57
53.60 53.51 53.39 52.57 52.07 51.76 50.59 46.55 45.66 45.38 41.74 41.22 40.88 39.59 38.70 38.63 37.38 38.34 37.37 36.41 38.63 37.42 34.47 35.79 33.29 35.88 35.73 35.25 38.81 37.02 37.82 29.35 32.23 29.28 33.05 33.04 30.60 32.62 32.59 32.55 32.64 32.03 32.06 30.66
52.94 53.23 52.99 52.12 51.46 52.13 49.07 49.09 48.47 46.27 38.42 41.01 40.07 39.44 39.42 38.73 38.66 38.89 40.21 38.99 36.93 36.47 38.09 39.34 39.29 38.99 38.65 37.89 35.66 34.57 33.85 31.79 29.09 23.74 31.28 30.37 25.09 31.90 32.90 33.19 34.28 32.97 27.49 32.28
52.33 52.70 52.96 52.91 51.70 50.75 50.14 48.29 48.70 45.35 39.88 41.09 40.22 39.69 39.77 38.55 38.66 37.84 39.77 39.94 37.23 40.32 43.07 41.56 40.39 38.72 37.94 37.68 36.88 37.79 32.92 31.95 30.18 25.12 27.65 17.47 32.28 36.91 36.19 33.21 34.16 35.08 34.89 35.71
51.99 52.02 52.17 52.37 52.49 51.54 50.08 49.79 48.08 44.97 41.94 41.88 39.65 39.43 39.13 39.27 39.08 37.57 38.79 40.58 41.72 42.83 39.42 35.16 33.46 33.94 34.38 36.03 37.65 36.89 36.52 32.11 27.03 22.65 23.26 27.80 31.33 34.75 33.17 31.16 30.23 35.87 34.65 36.49
51.61 51.86 51.89 51.74 52.73 52.09 52.13 49.18 50.55 47.41 42.87 41.21 42.42 39.60 40.07 38.70 38.34 37.96 39.10 41.80 43.05 41.34 37.30 35.37 26.79 28.62 30.78 29.42 31.65 37.56 36.84 35.38 29.21 26.19 19.48 16.92 30.59 36.13 38.88 36.58 24.21 36.59 36.47 35.58
51.34 51.33 51.34 51.35 52.27 52.54 50.79 48.87 50.35 48.03 43.25 44.29 43.07 39.89 39.60 41.77 40.68 37.87 39.03 38.84 38.19 40.79 35.59 32.70 31.60 29.98 33.81 26.47 27.35 27.88 29.25 29.54 25.71 26.35 23.57 27.60 35.71 36.93 38.12 22.71 25.25 36.27 36.49 36.71
50.67 50.70 50.79 50.83 51.51 52.39 50.64 49.46 50.59 46.56 43.59 44.97 43.77 44.27 41.82 41.02 40.18 36.73 38.41 37.19 37.15 36.12 32.43 33.26 33.13 31.20 32.14 30.06 31.86 29.19 27.53 25.38 24.90 26.30 22.24 19.71 37.94 35.99 28.91 33.72 37.21 37.56 37.96 37.96
50.77 50.64 50.25 49.87 50.58 51.62 51.43 47.60 50.85 49.91 44.73 44.62 47.37 46.25 46.39 45.28 44.85 40.76 40.25 38.99 38.68 38.80 35.42 35.77 36.12 31.96 32.69 29.92 25.09 34.87 26.38 30.86 27.84 28.17 27.72 36.23 38.39 36.76 38.84 38.78 37.94 37.95 37.54 38.08
52.24 51.58 51.00 50.36 49.87 50.91 50.57 48.08 49.17 47.69 44.12 43.66 43.60 42.65 46.52 47.33 46.54 46.87 38.11 40.52 42.12 40.10 41.87 37.68 36.96 31.54 33.47 27.47 28.70 31.03 33.80 36.02 30.37 30.53 33.18 35.00 37.10 38.83 39.88 39.84 38.58 38.80 39.09 38.78
52.96 51.39 51.07 50.60 50.14 50.42 50.56 48.04 49.16 46.86 43.32 37.47 41.69 46.63 43.53 47.64 46.54 45.63 44.96 43.38 43.74 42.67 41.18 36.91 35.93 31.75 35.83 30.63 32.18 30.66 33.38 34.42 31.34 30.86 34.35 36.23 37.33 38.26 39.04 38.62 39.21 38.87 39.31 38.92
53.29 52.21 51.38 50.57 50.03 49.50 50.03 49.71 50.37 50.02 42.16 37.78 39.11 43.60 45.24 45.16 45.60 43.88 44.09 42.62 41.16 39.04 36.66 35.56 33.29 34.84 34.18 34.43 33.32 30.31 34.60 32.25 29.78 28.87 35.20 34.37 35.42 38.66 39.16 37.47 37.09 37.43 36.93 36.35
53.38 52.61 51.75 51.05 50.96 50.51 48.47 43.61 49.37 50.21 48.62 39.86 34.47 44.07 41.72 42.99 43.58 42.60 42.22 42.17 40.93 39.92 37.20 35.03 35.38 37.77 34.11 29.34 27.63 34.39 36.85 37.96 37.47 34.48 38.41 37.69 38.26 38.93 38.81 37.06 37.10 36.57 35.35 35.08
53.39 52.79 51.66 51.83 51.18 48.90 44.76 41.56 45.66 49.23 48.09 40.15 35.90 36.49 41.34 42.65 41.65 41.12 40.45 41.82 40.49 38.73 35.87 34.05 34.10 34.52 35.99 32.20 27.03 33.97 36.66 38.05 38.63 39.24 38.27 35.38 36.90 34.67 36.80 35.87 35.64 36.46 35.75 35.83
53.37 52.50 51.76 51.22 50.46 49.14 45.22 47.91 48.60 49.34 44.83 42.76 34.44 33.47 36.43 41.21 36.66 35.70 40.60 38.00 37.83 36.54 35.54 35.84 34.16 35.42 34.50 28.42 33.05 35.99 37.55 38.13 37.97 37.61 37.49 36.27 36.46 35.92 34.75 35.47 34.95 33.31 33.18 34.22
53.10 52.12 50.59 48.06 45.57 42.55 45.40 49.83 49.01 48.79 43.50 34.84 33.43 30.57 32.79 39.61 37.78 38.57 37.87 37.94 31.96 36.95 32.14 32.97 33.83 31.47 28.47 32.19 34.24 35.79 37.33 35.90 35.47 36.54 36.19 35.25 33.54 33.05 33.32 33.32 32.88 31.60 32.63 32.96
52.16 47.92 42.88 38.85 43.93 49.35 48.31 44.42 41.11 40.38 40.54 39.61 34.14 36.77 33.90 36.41 36.65 36.04 35.65 36.17 32.67 30.07 32.96 35.42 31.28 29.43 35.28 36.37 37.82 38.27 38.04 37.42 36.41 32.70 31.43 32.04 31.22 31.46 32.79 32.72 33.19 33.00 32.63 33.30
46.36 41.22 39.52 45.35 48.68 43.78 40.75 35.91 35.02 35.64 32.68 36.11 35.63 35.66 33.95 38.02 33.30 34.06 36.64 33.37 32.52 26.47 29.77 29.66 28.51 27.92 33.05 37.22 37.76 38.87 37.94 36.25 35.16 34.90 34.33 33.42 33.54 32.45 32.80 32.70 33.07 33.30 33.07 32.99
45.40 42.97 43.90 42.49 39.52 36.81 33.16 32.08 34.26 32.68 30.83 35.82 34.31 34.64 36.74 36.40 38.72 35.07 35.31 31.04 31.68 25.04 33.54 28.63 24.58 30.97 36.27 37.49 37.64 37.58 37.04 35.29 35.13 35.06 33.76 34.29 34.09 33.94 33.26 32.87 32.62 32.86 34.02 33.31
43.88 40.00 36.37 34.49 33.78 28.92 27.81 25.83 29.74 30.11 34.18 36.70 35.38 33.00 34.52 35.42 36.60 34.51 32.58 27.04 26.27 32.75 26.75 25.12 28.57 35.03 37.04 37.11 37.09 36.09 35.18 35.27 33.91 33.37 34.57 34.61 34.02 34.58 33.69 32.67 33.36 33.18 32.81 33.37
34.53 31.43 27.82 30.91 27.99 29.72 31.58 32.67 34.98 36.92 37.30 36.23 35.47 33.37 32.82 35.21 32.30 32.68 26.90 29.39 30.11 24.85 22.56 24.81 31.15 35.61 36.86 37.03 36.19 34.30 33.87 33.60 32.55 32.71 34.02 33.64 33.59 33.44 33.95 33.40 33.54 32.60 31.94 32.98
32.09 31.62 28.74 29.44 35.62 36.86 38.12 39.72 40.07 39.96 38.99 36.44 34.25 34.26 33.82 31.34 30.23 31.31 29.58 26.48 21.94 24.43 24.79 30.36 34.78 36.89 37.19 35.10 34.46 33.71 33.20 32.99 32.35 33.83 33.49 33.46 33.67 32.88 32.52 33.18 33.54 33.05 33.21 32.62
32.45 31.74 32.03 35.28 35.07 35.53 38.83 38.83 37.13 39.05 37.54 36.54 36.44 32.02 30.14 28.94 29.95 27.44 25.02 24.16 22.69 27.42 31.09 35.07 37.20 36.26 35.12 34.06 34.48 34.29 33.90 32.70 32.43 33.96 33.87 33.68 33.52 32.84 32.66 33.19 33.27 32.57 34.26 32.42
31.02 31.70 35.67 37.17 38.87 37.39 38.44 39.33 37.41 39.72 35.27 32.08 33.03 27.64 27.95 32.47 27.90 25.40 28.52 26.20 30.04 33.25 34.86 36.22 37.01 36.00 34.76 34.76 34.51 34.31 34.00 32.75 34.03 33.85 33.88 33.76 34.51 34.03 32.99 31.28 32.50 34.10 34.01 32.99

GFSNW_sfc_wetblb_027.txt.gz
Wetbulb
54.17 54.48 54.98 54.72 54.58 52.85 50.66 45.81 39.23 45.20 45.64 39.72 37.37 34.66 40.11 43.13 40.66 41.69 40.89 39.86 38.22 35.58 35.50 33.36 33.65 36.07 37.05 40.67 38.80 33.30 33.77 28.98 23.54 28.52 35.64 38.46 34.69 30.68 30.43 21.02 22.69 23.46 18.25 22.76
53.98 54.04 54.40 54.43 53.81 52.12 44.10 38.53 38.52 44.51 44.19 33.29 31.73 35.88 39.03 39.56 39.99 38.70 39.42 38.23 38.42 37.21 34.80 30.65 34.26 36.92 40.82 39.98 37.07 33.17 33.66 26.45 18.80 26.19 31.78 35.41 32.03 33.79 33.15 30.61 25.95 19.78 16.45 24.23
53.85 53.75 53.85 53.84 53.67 53.42 46.45 40.99 37.28 39.47 38.73 36.34 34.74 33.55 34.90 35.40 40.03 38.67 39.12 37.78 38.24 35.70 33.67 34.93 32.66 34.61 39.81 39.76 38.29 42.04 37.04 28.34 24.23 19.18 24.69 30.04 27.42 30.67 31.82 28.31 15.78 22.87 24.54 26.92
53.95 53.84 53.75 53.69 53.31 53.34 46.09 39.70 34.48 37.43 31.67 34.11 34.11 33.90 36.05 35.27 34.98 37.11 37.11 35.43 35.93 33.45 29.70 31.67 32.10 34.93 35.20 38.20 41.39 37.37 33.60 26.05 28.57 30.40 31.83 31.85 30.59 30.18 30.67 28.05 28.37 22.29 26.98 27.77
53.73 53.75 53.52 53.29 52.67 52.38 41.06 38.81 36.37 36.12 33.85 34.92 33.72 34.23 32.24 35.66 34.79 34.88 34.31 33.69 36.53 34.10 30.20 31.87 29.90 32.67 31.37 31.38 34.98 33.09 32.84 25.14 28.40 26.60 30.97 31.04 28.70 30.70 30.57 30.32 30.32 29.73 30.09 28.55
52.79 53.48 53.14 52.87 52.28 49.86 40.54 41.03 41.24 38.35 35.75 33.55 32.46 32.11 34.36 36.31 36.20 36.26 38.13 36.22 33.42 33.02 35.30 35.44 34.57 33.99 33.84 32.81 30.90 30.51 29.60 26.75 23.75 17.55 28.46 28.05 21.83 28.59 30.20 30.46 31.29 30.15 25.41 30.30
52.47 52.66 53.10 53.34 52.49 50.62 42.76 41.61 41.21 36.61 32.21 34.39 35.05 37.03 37.79 36.05 35.53 34.75 37.52 36.64 32.90 36.97 38.78 37.33 35.40 33.27 34.16 33.53 32.96 33.91 28.88 27.24 24.59 18.43 22.88 12.05 27.96 34.40 33.60 31.73 32.95 33.10 32.82 33.34
52.15 52.17 52.21 52.67 53.04 52.23 44.02 43.60 41.49 37.32 31.93 35.22 36.02 36.75 35.97 35.34 34.08 34.26 36.24 37.52 36.78 37.42 34.67 30.33 28.37 28.90 29.74 32.80 33.92 32.70 32.15 27.70 20.38 15.42 16.20 23.90 28.32 32.45 31.11 28.96 27.92 34.28 32.52 34.08
51.86 51.82 51.62 52.01 52.76 52.39 45.23 43.95 44.09 39.84 35.38 33.35 38.54 35.86 35.64 31.70 30.36 32.71 35.73 37.53 37.92 36.56 32.54 30.60 19.80 21.76 26.00 25.22 28.86 34.81 32.68 30.64 24.37 21.65 10.17 9.79 25.94 33.60 36.22 33.94 23.19 33.78 34.10 33.92
51.35 51.61 51.42 51.44 52.48 52.65 46.53 43.62 44.62 41.68 35.67 37.49 36.45 33.97 33.93 36.14 33.19 30.87 33.85 34.77 33.95 35.62 29.31 25.81 22.64 23.77 29.72 21.58 22.99 23.75 24.48 23.53 22.89 22.96 15.40 22.48 31.85 35.22 35.70 18.70 23.11 34.62 35.17 34.91
51.02 51.12 51.34 51.01 51.67 52.39 47.35 43.50 45.44 41.73 37.34 38.95 40.38 41.13 35.95 35.88 34.23 30.56 33.40 32.32 32.20 30.14 25.22 24.69 25.80 22.58 27.14 24.49 26.95 25.60 23.61 18.26 18.71 20.74 15.32 16.92 34.73 33.08 26.08 30.86 34.61 35.17 35.28 35.34
51.94 50.65 50.93 50.98 50.95 51.79 51.20 41.93 46.71 45.89 40.37 39.61 44.38 43.91 43.32 40.97 40.06 36.10 34.84 33.31 33.16 33.39 29.17 28.38 25.41 24.47 24.20 24.70 19.98 29.72 23.37 27.25 22.54 23.87 23.06 31.56 33.92 33.56 35.42 35.81 34.68 34.84 35.21 36.01
52.95 51.98 50.39 50.57 50.37 51.10 50.13 43.43 44.24 42.12 38.28 37.23 39.00 39.16 42.93 43.97 42.95 42.51 34.15 34.38 37.43 36.05 36.38 31.87 29.17 23.52 26.97 21.02 23.96 26.65 29.23 31.95 26.41 26.07 28.79 30.99 34.33 37.06 36.48 37.05 35.60 36.47 36.99 36.49
53.54 52.71 51.21 50.74 50.48 50.55 50.09 44.00 45.83 41.86 38.87 34.05 36.43 44.35 41.58 43.72 43.15 42.88 41.54 40.11 39.81 38.32 35.37 30.85 25.94 23.66 30.61 24.47 27.74 26.36 29.29 29.62 27.76 26.56 31.01 32.27 34.26 34.40 35.78 36.42 36.91 36.33 36.36 34.87
54.07 53.38 52.39 51.67 50.72 49.54 47.02 47.03 46.47 46.21 38.97 34.81 36.55 41.16 41.88 42.61 41.96 41.53 41.40 39.87 36.89 33.51 31.26 27.89 27.28 30.53 27.59 28.31 28.90 28.05 32.14 29.57 24.12 25.95 30.99 30.06 30.90 35.27 36.97 35.36 34.43 33.55 33.03 33.06
54.51 53.78 53.04 51.99 50.93 50.64 46.92 41.88 45.78 47.24 44.89 38.47 29.19 39.10 38.01 40.62 41.71 40.80 40.19 40.15 37.85 35.72 31.70 30.34 31.91 33.50 28.61 17.16 23.11 30.86 33.05 34.54 35.48 31.81 33.37 33.72 35.63 36.58 35.49 32.30 33.00 33.80 33.54 33.46
54.60 53.75 52.97 52.05 51.55 48.39 43.75 41.01 43.43 47.79 44.13 37.11 32.09 32.83 38.44 40.60 40.15 38.97 38.01 38.72 37.17 35.66 33.10 31.78 32.27 32.48 33.69 31.04 26.18 30.64 33.75 34.89 36.20 36.43 33.30 30.97 32.67 30.84 32.80 33.40 33.97 34.80 33.99 33.99
54.12 53.91 52.66 51.44 51.26 48.89 43.91 46.00 48.43 47.59 40.78 39.45 26.51 29.03 33.58 39.20 34.85 33.95 38.19 36.06 36.19 35.76 34.37 34.80 32.30 33.13 32.81 26.61 31.66 33.37 35.15 35.01 33.81 35.07 34.20 32.14 31.18 31.58 32.28 33.27 33.14 32.48 32.48 32.72
53.50 53.33 51.68 49.09 45.78 42.32 43.14 49.28 49.18 47.41 42.09 32.70 31.52 26.60 23.15 35.52 34.73 36.25 35.92 36.07 30.52 35.28 30.57 32.63 33.05 30.64 27.15 30.95 32.67 32.83 34.22 33.09 33.88 34.06 31.68 31.05 30.16 30.01 30.47 30.89 32.82 31.88 31.98 32.68
51.94 49.05 43.53 39.33 43.11 49.87 48.03 43.95 40.39 39.98 39.98 39.31 33.30 32.35 26.76 32.21 31.27 28.64 32.49 34.58 31.34 28.40 31.32 32.41 29.75 28.02 33.56 34.43 35.98 35.64 34.85 35.92 34.24 29.23 28.47 28.06 27.07 28.84 29.78 30.72 33.06 32.78 32.38 32.12
46.96 41.45 39.67 44.63 49.11 43.16 40.21 35.60 34.33 34.79 32.45 36.06 35.56 34.79 29.51 34.19 30.57 31.12 35.09 31.50 28.71 22.60 25.16 25.55 23.65 23.54 30.59 35.18 35.24 36.29 35.26 34.71 32.80 32.45 31.33 30.30 29.15 29.73 31.27 32.28 32.73 32.83 32.47 32.00
44.36 43.46 44.22 42.88 39.91 36.11 32.53 30.70 32.09 31.73 30.01 33.62 33.80 31.94 35.83 34.90 37.16 33.79 33.86 29.60 30.37 23.33 28.78 22.90 21.06 26.27 32.42 32.98 33.44 33.96 33.89 33.45 33.08 32.81 31.65 30.45 31.14 31.45 33.20 32.63 32.37 32.48 33.04 32.71
44.22 39.81 33.56 33.49 32.39 28.50 27.76 24.30 27.41 27.88 30.18 32.66 33.38 31.23 34.11 34.40 34.99 33.16 32.23 27.77 26.51 28.90 19.39 22.78 25.36 30.48 33.68 33.29 33.93 33.14 32.87 33.55 32.74 31.93 31.81 31.51 31.42 34.41 33.63 32.55 33.09 33.05 32.22 32.95
35.57 30.84 26.72 28.95 27.49 29.20 26.59 26.03 29.25 31.25 31.14 33.58 34.05 32.19 31.87 33.37 31.88 32.46 27.42 28.42 26.61 20.09 17.45 20.76 27.41 30.36 33.17 33.58 33.24 32.25 31.74 32.27 31.48 31.05 31.26 31.05 32.08 33.16 33.72 33.36 33.11 32.45 31.51 32.60
33.22 30.60 26.03 28.45 31.00 30.50 30.81 32.58 31.55 32.71 36.02 34.62 32.15 29.92 31.09 30.16 29.46 30.58 28.97 25.70 18.38 20.22 21.20 27.97 29.60 30.78 33.97 32.20 31.52 30.72 30.77 31.13 30.94 30.66 30.61 31.18 33.16 32.79 32.54 33.21 33.23 32.89 32.67 31.90
33.03 32.06 28.42 32.22 29.49 30.04 31.83 30.93 31.87 34.08 35.36 32.51 31.04 29.59 27.51 26.61 28.54 26.33 23.76 20.40 19.02 23.90 29.48 30.78 31.32 31.37 32.40 31.14 31.52 31.41 31.22 30.84 30.28 30.46 31.33 32.54 33.06 32.78 32.79 33.22 33.03 32.75 33.08 30.91
30.08 29.70 32.59 33.30 32.28 32.67 32.84 35.09 34.35 37.82 34.21 28.28 30.33 26.79 26.56 30.09 27.06 23.04 24.32 22.42 25.83 31.34 30.76 30.75 32.24 32.54 31.27 31.20 31.21 31.05 31.39 30.49 29.93 30.16 31.00 33.27 34.11 33.93 33.00 31.49 32.50 33.59 33.91 31.26

GFSNW_sfc_wetblb_030.txt.gz
Wetbulb
54.51 54.94 55.21 55.02 54.67 53.14 49.39 42.53 35.47 42.70 44.52 38.16 33.31 33.12 37.88 42.49 39.38 40.36 39.49 37.80 36.06 33.84 33.61 31.53 32.03 34.47 36.08 39.23 36.97 31.68 32.04 27.73 23.10 27.13 33.37 36.40 32.63 29.22 28.08 20.94 21.04 21.71 17.21 20.64
54.27 54.43 54.94 54.95 54.28 51.79 42.98 36.70 36.75 42.34 42.34 32.67 30.25 34.05 37.56 38.32 38.35 37.15 37.88 36.62 37.13 35.62 33.04 28.97 32.67 35.27 39.76 38.50 35.68 31.68 31.57 25.05 19.11 23.81 30.66 33.24 30.29 31.73 31.44 28.86 24.09 18.78 16.75 23.68
54.07 54.11 54.42 54.53 54.31 53.91 43.41 39.50 36.25 38.31 36.00 33.50 33.16 31.92 33.02 33.52 38.43 37.23 37.58 35.87 36.69 34.02 31.94 33.44 31.41 34.08 38.73 38.55 37.10 42.09 36.17 26.39 23.32 20.50 23.94 28.02 26.27 29.33 30.03 27.35 15.81 21.61 24.03 27.57
54.11 54.11 54.23 54.38 53.87 53.64 42.63 36.48 33.78 35.47 30.93 33.13 31.84 31.98 34.93 33.41 33.41 35.58 35.68 33.95 34.46 31.99 28.47 30.14 30.44 33.28 34.03 36.95 40.54 35.90 32.17 24.91 26.82 28.44 29.94 30.19 29.50 29.05 29.45 26.55 27.18 21.66 26.53 26.45
53.85 53.90 53.90 53.97 53.00 50.80 40.16 37.69 34.87 34.12 32.10 33.12 31.68 33.86 30.94 34.45 33.50 33.50 32.88 32.55 34.93 32.39 29.48 30.93 29.77 31.79 30.41 30.10 34.13 32.50 31.36 24.22 26.39 24.42 29.27 29.17 27.33 29.63 29.86 29.57 29.51 28.77 29.24 28.06
52.91 53.44 53.42 53.42 52.58 48.06 39.50 39.39 39.63 36.23 34.59 31.34 31.40 31.23 32.85 35.04 34.90 34.55 36.32 35.71 32.77 31.63 33.67 34.45 33.44 33.02 32.81 31.74 31.03 29.61 28.63 26.09 22.77 17.65 25.93 25.73 21.05 26.86 28.65 29.41 30.66 29.35 24.43 30.05
52.60 52.60 53.18 53.71 52.99 48.33 41.81 40.32 39.22 35.83 31.65 33.31 34.23 35.73 36.19 34.45 34.16 33.80 35.78 35.07 31.61 35.65 37.10 35.44 33.52 31.40 32.63 31.86 31.42 32.54 27.54 26.21 23.84 17.59 21.69 12.42 26.83 32.13 32.13 30.15 31.76 32.30 31.98 32.34
52.31 52.29 52.22 52.67 53.21 52.27 42.80 42.01 39.64 36.21 30.87 33.59 34.43 35.40 34.61 33.65 32.84 33.14 34.80 35.60 35.82 36.55 33.88 29.54 27.49 27.46 28.52 31.21 32.21 30.53 30.72 26.64 19.76 14.38 15.36 22.79 27.21 30.67 30.26 27.52 27.88 32.95 31.58 32.65
51.75 51.97 51.82 51.77 52.86 52.51 42.89 41.64 42.58 38.36 33.87 32.90 36.86 34.77 34.09 30.52 28.83 31.05 33.71 36.01 35.87 35.05 31.65 29.26 18.59 21.47 25.24 24.81 27.50 32.12 30.29 28.84 22.82 20.62 10.11 10.30 24.96 32.01 34.61 32.31 22.33 32.36 32.02 31.97
51.54 51.67 51.79 51.58 52.28 52.68 44.17 42.10 42.96 39.07 35.13 37.20 35.72 33.49 33.28 34.60 31.44 29.87 31.64 33.47 32.80 34.17 27.95 25.30 22.17 23.63 28.60 22.17 23.27 23.55 23.95 23.31 21.99 21.02 13.31 21.45 30.26 33.26 34.19 19.73 21.94 31.99 32.67 33.05
52.07 51.27 51.44 51.42 51.44 52.13 45.65 42.65 43.98 39.18 35.37 37.52 39.38 40.42 35.88 34.80 32.75 29.60 31.78 31.37 30.82 28.47 25.03 24.03 24.88 21.63 26.37 23.72 25.51 25.05 23.35 19.09 18.67 20.57 14.94 16.24 33.37 31.81 26.47 29.05 31.31 33.41 33.63 33.66
53.53 51.41 50.70 50.98 50.96 51.42 48.21 41.22 45.35 44.70 37.16 36.05 42.94 43.03 42.15 40.15 39.01 35.06 32.56 31.86 31.18 31.91 26.79 26.14 23.43 24.28 22.57 24.91 20.72 27.67 23.37 26.99 22.08 23.64 23.35 31.37 32.82 31.97 33.92 34.53 33.43 33.48 33.09 33.94
54.00 52.69 51.23 50.36 50.42 50.86 48.35 42.26 43.09 40.23 36.52 35.98 37.71 38.50 42.56 42.68 42.05 41.30 33.75 33.02 35.70 33.74 34.96 30.52 26.98 23.06 26.11 21.33 23.35 24.15 29.89 31.01 26.51 26.43 29.11 31.16 33.37 33.60 34.86 35.50 34.35 35.06 34.72 33.43
54.82 53.44 52.68 51.00 50.58 50.25 48.59 42.33 43.53 40.63 37.34 32.50 36.33 42.40 39.12 42.22 41.33 42.20 41.80 39.79 39.07 37.29 34.98 30.91 25.48 24.29 29.54 23.47 26.88 25.62 30.65 29.29 26.84 26.29 30.17 31.29 32.01 32.68 34.31 35.23 35.65 34.06 33.00 32.62
55.43 54.51 53.42 52.52 51.66 50.30 46.03 43.21 44.21 44.34 37.33 32.46 34.34 38.31 40.68 40.97 40.96 40.46 40.55 39.64 36.68 34.56 32.36 29.73 27.81 29.59 28.52 27.30 27.63 24.47 32.42 29.88 25.10 26.56 30.65 29.87 29.20 33.09 35.74 33.84 31.78 31.80 31.70 31.48
54.50 54.95 54.08 53.18 51.78 50.14 45.85 41.77 43.96 46.08 42.40 34.66 27.18 36.37 36.74 38.21 39.40 39.76 39.50 38.31 36.70 35.94 33.97 32.00 32.67 34.14 31.71 24.07 20.01 30.47 34.47 34.42 34.26 31.38 32.11 31.87 32.83 35.13 32.91 30.53 31.57 32.36 32.12 32.14
53.27 54.32 54.00 52.98 51.85 47.94 43.40 41.00 43.18 48.07 43.89 36.92 29.48 27.77 35.89 37.70 37.48 36.81 35.98 37.34 36.45 35.97 34.28 31.76 31.24 30.82 32.60 22.04 24.36 32.37 33.69 33.96 33.59 33.29 31.03 30.10 32.59 29.84 30.98 32.08 32.64 33.57 32.80 32.75
52.56 53.15 52.97 52.36 51.55 48.45 44.07 44.22 47.76 47.15 42.62 40.17 31.28 27.78 30.37 36.28 32.21 31.42 35.41 33.09 35.77 36.08 33.66 33.56 32.15 32.44 32.01 26.58 31.97 33.33 33.73 33.50 33.20 33.70 33.04 32.18 31.24 30.57 30.56 31.63 31.66 30.65 30.51 31.38
52.16 51.99 51.67 50.46 46.90 43.04 43.26 48.41 49.05 45.76 41.21 33.45 32.09 29.15 21.97 33.66 32.12 32.62 32.73 33.04 26.42 32.96 28.42 32.28 31.15 26.27 26.07 31.21 31.89 32.19 32.62 32.23 32.33 32.95 32.75 30.56 29.76 28.58 28.91 28.72 29.73 29.09 30.95 31.87
50.52 47.85 44.27 40.02 43.36 49.06 48.04 43.81 40.24 40.26 40.43 39.41 33.68 31.53 24.92 30.73 27.33 23.94 27.95 25.66 23.98 27.09 29.58 31.75 29.98 27.12 32.87 35.02 35.08 35.38 34.02 34.80 33.65 30.79 28.55 28.28 27.59 27.95 27.31 28.13 30.49 32.06 31.99 31.87
43.25 41.73 40.37 44.65 49.24 43.53 40.51 35.92 34.82 35.16 32.24 35.88 35.64 34.81 28.56 32.73 29.80 31.50 33.25 28.95 30.21 23.04 24.57 26.33 22.91 23.25 29.72 34.26 34.73 36.10 36.01 34.20 33.55 32.94 30.87 30.41 29.64 29.03 29.08 29.85 30.98 31.39 32.30 31.46
41.70 42.58 44.33 43.55 40.15 35.67 32.39 31.31 33.11 31.43 29.12 33.16 33.84 33.67 35.43 33.93 36.57 33.46 33.94 30.52 29.35 21.69 27.77 23.50 21.63 25.69 31.53 32.10 32.87 32.92 33.18 33.33 31.67 31.46 30.60 30.24 30.52 30.38 30.14 30.14 31.12 32.57 32.55 32.20
42.95 39.10 35.07 33.51 32.30 27.31 28.05 23.28 26.99 27.81 30.34 33.24 33.82 30.95 34.40 34.32 35.46 33.71 32.45 28.22 25.25 27.23 23.86 22.88 25.13 31.15 31.43 31.66 32.23 31.98 31.73 32.06 31.40 30.93 31.11 31.20 31.07 31.87 31.23 31.71 32.70 32.88 32.11 32.36
36.62 32.11 25.65 24.69 26.90 27.69 28.00 25.71 26.42 30.30 30.93 32.80 32.75 30.61 32.26 33.23 32.40 32.51 28.84 28.82 26.85 18.17 16.85 19.73 27.42 32.23 31.07 32.53 31.88 30.94 30.45 30.87 30.57 30.20 30.23 30.48 30.59 30.39 31.96 33.35 33.08 32.45 31.75 32.39
33.19 31.39 24.67 23.14 28.48 28.54 29.04 29.38 29.50 32.63 33.79 34.43 32.54 32.05 32.45 30.81 30.38 30.78 28.31 25.44 19.92 20.43 20.62 25.41 31.70 30.71 29.96 31.09 31.21 30.81 29.63 29.43 29.59 29.67 29.67 30.12 30.35 30.20 31.66 33.26 33.27 32.82 32.56 31.31
34.51 31.23 28.06 29.49 27.81 29.45 28.76 29.14 28.76 33.38 34.70 33.48 32.47 30.83 28.59 28.31 28.58 26.57 23.07 20.08 18.75 23.01 27.25 32.40 32.96 29.78 30.01 31.14 33.16 32.17 29.81 29.65 29.47 29.52 30.01 30.39 30.25 30.14 32.56 33.29 32.92 32.74 32.84 31.80
30.58 29.79 33.38 30.89 31.06 31.27 30.13 31.29 32.16 36.66 34.55 31.46 31.68 27.31 26.55 30.30 26.57 22.18 23.60 21.95 25.37 30.29 32.13 34.37 33.04 31.07 31.37 31.32 31.33 30.16 30.04 29.33 29.01 29.29 29.82 30.15 31.32 31.69 32.81 31.71 32.65 33.26 33.53 33.10